Back to catalog

STARLINK-38123

AliveCommunicationsVLEO
NORAD 100003·PAYLOAD·🇺🇸 United States

Launched Jul 14, 2026 from Vandenberg Space Force Base

Loading…

Next Passes (next 24 hours)

TLE

FreshSource: Space-Track

Epoch: Sep 14, 2026, 14:00 UTC

1 A0003U 26160C   26257.58370660  .00243930  00000-0  14193-2 0  9996
2 A0003  70.0027 211.5239 0002092 282.5547  77.5419 15.77622829 11060

Track STARLINK-38123 in real time with AllMySat

Download on the App Store